DW9493 Weather Reports


Display with metric or nautical units.
time (UTC)temp
F
wind
direction
speed
MPH
gust
MPH
rain 1hr
in
rain 24hr
in
rain mn
in
humidity
%
barometer
mb
20260509164446 62 293 7.0 19.0 0.00 0.00 0.00 21 1019.3
20260509163444 62 325 5.0 13.0 0.00 0.00 0.00 25 1019.1
20260509162444 62 252 6.0 14.0 0.00 0.00 0.00 24 1019.2
20260509161440 62 238 2.0 8.0 0.00 0.00 0.00 25 1019.2
20260509160916 61 153 4.0 11.0 0.00 0.00 0.00 27 1019.3
20260509155433 62 340 1.0 7.0 0.00 0.00 0.00 27 1019.1
20260509154423 60 208 2.0 5.0 0.00 0.00 0.00 28 1019.2
20260509153423 60 140 1.0 3.0 0.00 0.00 0.00 29 1019.5
20260509153333 60 34 1.0 4.0 0.00 0.00 0.00 28 1019.3
20260509151418 58 134 1.0 6.0 0.00 0.00 0.00 31 1019.6
20260509150418 58 44 1.0 4.0 0.00 0.00 0.00 31 1019.6
20260509145421 57 113 1.0 3.0 0.00 0.00 0.00 31 1019.6
20260509144419 56 256 1.0 2.0 0.00 0.00 0.00 32 1019.8
20260509143830 54 210 1.0 3.0 0.00 0.00 0.00 34 1020.0
20260509142354 54 315 0.0 4.0 0.00 0.00 0.00 36 1019.8
20260509141354 49 316 0.0 2.0 0.00 0.00 0.00 47 1020.1
20260509140841 44 316 1.0 3.0 0.00 0.00 0.00 60 1020.1
20260509135350 41 281 0.0 3.0 0.00 0.00 0.00 66 1020.2
20260509134839 42 314 0.0 2.0 0.00 0.00 0.00 62 1020.1
20260509133347 43 312 0.0 1.0 0.00 0.00 0.00 56 1020.1
20260509132347 46 311 0.0 2.0 0.00 0.00 0.00 51 1020.0
20260509131342 48 308 1.0 3.0 0.00 0.00 0.00 46 1019.8
20260509130343 49 203 2.0 5.0 0.00 0.00 0.00 43 1019.6
20260509125337 49 225 3.0 6.0 0.00 0.00 0.00 42 1019.3
20260509124331 49 256 1.0 5.0 0.00 0.00 0.00 42 1019.2
20260509123328 50 113 3.0 12.0 0.00 0.00 0.00 42 1018.7
20260509122328 50 79 2.0 12.0 0.00 0.00 0.00 41 1018.7
20260509121329 51 274 9.0 16.0 0.00 0.00 0.00 40 1017.9
20260509120801 50 245 10.0 20.0 0.00 0.00 0.00 41 1017.4
20260509115327 50 245 10.0 18.0 0.00 0.00 0.00 42 1017.4
20260509114800 50 242 12.0 19.0 0.00 0.00 0.00 42 1017.6
20260509113322 51 231 13.0 23.0 0.00 0.00 0.00 41 1017.6
20260509112758 51 238 13.0 23.0 0.00 0.00 0.00 40 1017.4
20260509111753 50 231 10.0 18.0 0.00 0.00 0.00 42 1017.6
20260509110320 50 255 10.0 17.0 0.00 0.00 0.00 42 1017.6
20260509105321 50 257 8.0 14.0 0.00 0.00 0.00 43 1017.8
20260509104319 50 246 8.0 13.0 0.00 0.00 0.00 43 1017.9
20260509103318 50 250 8.0 12.0 0.00 0.00 0.00 44 1017.8
20260509102319 49 231 7.0 10.0 0.00 0.00 0.00 45 1017.9
20260509101318 49 219 6.0 9.0 0.00 0.00 0.00 45 1017.9
20260509100318 50 210 6.0 10.0 0.00 0.00 0.00 43 1017.9
20260509095318 50 215 4.0 7.0 0.00 0.00 0.00 44 1018.2
20260509094316 50 229 2.0 6.0 0.00 0.00 0.00 43 1018.2
20260509093317 50 267 2.0 4.0 0.00 0.00 0.00 46 1018.3
20260509092315 51 242 3.0 4.0 0.00 0.00 0.00 42 1018.2
20260509091315 51 242 3.0 4.0 0.00 0.00 0.00 42 1018.2
20260509090307 51 271 3.0 5.0 0.00 0.00 0.00 42 1018.1
20260509085306 51 247 2.0 4.0 0.00 0.00 0.00 43 1018.1
20260509084739 51 248 2.0 4.0 0.00 0.00 0.00 42 1017.9
20260509083244 51 266 2.0 3.0 0.00 0.00 0.00 42 1018.1
20260509082244 52 246 2.0 4.0 0.00 0.00 0.00 41 1018.2
20260509081238 52 246 3.0 7.0 0.00 0.00 0.00 42 1018.2
20260509080239 50 246 3.0 12.0 0.00 0.00 0.00 45 1018.2
20260509075238 45 262 0.0 1.0 0.00 0.00 0.00 58 1018.3
20260509074234 45 266 1.0 3.0 0.00 0.00 0.00 59 1018.3
20260509073232 44 249 1.0 4.0 0.00 0.00 0.00 62 1018.3
20260509072230 43 270 0.0 2.0 0.00 0.00 0.00 67 1018.3
20260509071228 43 263 0.0 2.0 0.00 0.00 0.00 67 1018.2
20260509070228 44 311 2.0 7.0 0.00 0.00 0.00 64 1018.3
20260509065222 43 328 1.0 6.0 0.00 0.00 0.00 68 1018.4
20260509064224 42 315 0.0 3.0 0.00 0.00 0.00 73 1018.4
20260509063222 42 253 0.0 2.0 0.00 0.00 0.00 73 1018.4
20260509062221 42 266 0.0 2.0 0.00 0.00 0.00 71 1018.6
20260509061219 42 319 0.0 2.0 0.00 0.00 0.00 75 1018.6
20260509060218 42 208 0.0 1.0 0.00 0.00 0.00 75 1018.7
20260509055216 42 312 1.0 3.0 0.00 0.00 0.00 78 1018.8
20260509054215 41 304 0.0 1.0 0.00 0.00 0.00 75 1019.0
20260509053217 42 274 0.0 1.0 0.00 0.00 0.00 77 1019.1
20260509052212 42 328 0.0 1.0 0.00 0.00 0.00 76 1019.2
20260509051213 43 205 0.0 1.0 0.00 0.00 0.00 76 1019.3
20260509050653 45 205 0.0 1.0 0.00 0.00 0.00 74 1019.5
20260509045211 46 205 1.0 3.0 0.00 0.00 0.00 73 1019.7
20260509044211 46 331 0.0 2.0 0.00 0.00 0.00 73 1019.7
20260509043208 47 321 0.0 3.0 0.00 0.00 0.00 71 1019.8
20260509042206 47 240 0.0 1.0 0.00 0.00 0.00 70 1020.2
20260509041208 49 240 0.0 1.0 0.00 0.00 0.00 67 1020.1
20260509040208 49 240 0.0 2.0 0.00 0.00 0.00 68 1020.0
20260509035645 50 242 0.0 3.0 0.00 0.00 0.00 67 1020.0
20260509034202 50 34 0.0 1.0 0.00 0.00 0.00 67 1020.2
20260509033633 50 34 0.0 0.0 0.00 0.00 0.00 66 1020.1
20260509032201 49 34 0.0 3.0 0.00 0.00 0.00 69 1020.1
20260509031158 49 319 0.0 1.0 0.00 0.00 0.00 72 1020.3
20260509030155 49 319 0.0 1.0 0.00 0.00 0.00 69 1020.1
20260509025639 49 319 0.0 1.0 0.00 0.00 0.00 68 1019.8
20260509024154 50 204 0.0 0.0 0.00 0.00 0.00 64 1019.7
20260509023153 51 203 0.0 1.0 0.00 0.00 0.00 62 1019.6
20260509022150 52 203 0.0 2.0 0.00 0.00 0.00 61 1019.6
20260509021634 52 130 0.0 1.0 0.00 0.00 0.00 62 1019.5
20260509020151 53 95 0.0 1.0 0.00 0.00 0.00 64 1019.3
20260509015150 53 94 0.0 1.0 0.00 0.00 0.00 63 1019.3
20260509014150 53 95 0.0 0.0 0.00 0.00 0.00 61 1019.2
20260509013148 54 95 0.0 1.0 0.00 0.00 0.00 59 1019.3
20260509012149 54 94 0.0 3.0 0.00 0.00 0.00 57 1019.2
20260509012041 56 96 0.0 2.0 0.00 0.00 0.00 54 1019.1
20260509011225 55 95 1.0 4.0 0.00 0.00 0.00 56 1019.1
20260509005628 56 116 1.0 5.0 0.00 0.00 0.00 53 1019.1
20260509005056 56 124 1.0 6.0 0.00 0.00 0.00 53 1019.1
20260509003143 56 101 0.0 3.0 0.00 0.00 0.00 52 1019.0
20260509002144 56 105 2.0 6.0 0.00 0.00 0.00 51 1019.0
20260509001143 57 84 1.0 5.0 0.00 0.00 0.00 52 1019.1
20260509000142 57 115 1.0 4.0 0.00 0.00 0.00 51 1019.2
20260508235142 57 122 1.0 4.0 0.00 0.00 0.00 50 1019.1
20260508234141 57 36 2.0 5.0 0.00 0.00 0.00 50 1019.0
20260508233632 57 72 2.0 7.0 0.00 0.00 0.00 50 1018.8
20260508233055 58 84 2.0 7.0 0.00 0.00 0.00 48 1019.0
20260508231138 58 78 2.0 6.0 0.00 0.00 0.00 49 1018.8
20260508230139 58 122 1.0 6.0 0.00 0.00 0.00 49 1018.8
20260508225138 58 125 2.0 6.0 0.00 0.00 0.00 49 1018.8
20260508224138 59 82 1.0 6.0 0.00 0.00 0.00 47 1018.8
20260508223135 58 117 3.0 8.0 0.00 0.00 0.00 48 1018.8
20260508222135 59 32 1.0 9.0 0.00 0.00 0.00 45 1018.8
20260508221123 60 101 3.0 13.0 0.00 0.00 0.00 45 1018.8
20260508220119 60 101 2.0 7.0 0.00 0.00 0.00 46 1018.8
20260508215118 60 104 3.0 8.0 0.00 0.00 0.00 46 1018.8
20260508214118 59 142 2.0 5.0 0.00 0.00 0.00 48 1019.0
20260508213118 59 242 2.0 9.0 0.00 0.00 0.00 47 1019.0
20260508212120 60 103 2.0 10.0 0.00 0.00 0.00 47 1019.0
20260508211108 60 307 2.0 9.0 0.00 0.00 0.00 46 1019.0
20260508210039 59 331 2.0 6.0 0.00 0.00 0.00 47 1019.1
20260508205037 58 274 3.0 10.0 0.00 0.00 0.00 47 1019.3
20260508204029 59 63 3.0 11.0 0.00 0.00 0.00 48 1019.3
20260508203030 59 50 3.0 8.0 0.00 0.00 0.00 48 1019.5
20260508202027 59 25 3.0 10.0 0.00 0.00 0.00 48 1019.5
20260508201026 58 58 4.0 9.0 0.00 0.00 0.00 47 1019.5
20260508200018 59 94 3.0 8.0 0.00 0.00 0.00 49 1019.6
20260508195017 58 113 4.0 11.0 0.00 0.00 0.00 51 1019.6
20260508194449 59 115 2.0 7.0 0.00 0.00 0.00 48 1019.7
20260508193016 58 142 3.0 9.0 0.00 0.00 0.00 51 1019.7
20260508192016 58 103 3.0 8.0 0.00 0.00 0.00 50 1019.8
20260508191456 57 115 3.0 11.0 0.00 0.00 0.00 51 1019.8
20260508190012 56 56 3.0 11.0 0.00 0.00 0.00 51 1020.0
20260508184957 56 39 4.0 11.0 0.00 0.00 0.00 53 1020.0
20260508183929 56 113 5.0 13.0 0.00 0.00 0.00 54 1020.1
20260508182929 55 94 4.0 15.0 0.00 0.00 0.00 54 1020.1
20260508181928 56 50 4.0 12.0 0.00 0.00 0.00 54 1020.0
20260508180925 55 9 4.0 11.0 0.00 0.00 0.00 56 1020.2
20260508175927 56 92 3.0 11.0 0.00 0.00 0.00 57 1020.3
20260508175403 55 73 4.0 12.0 0.00 0.01 0.00 56 1020.3
20260508174353 55 86 4.0 12.0 0.00 0.01 0.00 56 1020.2
20260508172858 55 82 4.0 16.0 0.00 0.01 0.00 55 1019.8
20260508171858 55 121 3.0 9.0 0.00 0.02 0.00 55 1020.0
20260508170856 56 29 4.0 13.0 0.00 0.02 0.00 51 1020.0
20260508165854 58 301 4.0 12.0 0.00 0.02 0.00 36 1020.0
20260508164855 57 325 5.0 11.0 0.00 0.03 0.00 36 1020.0